Regional Weather Roundup
Issued by NWS Charleston, SC

Current Version | Previous Version | Graphics & Text | Print | Product List | Glossary On
Versions: 1 2 3 4 5 6 7 8 9 10 11 12 13 14 15 16 17 18 19 20 21 22 23 24 25 26 27 28 29 30 31 32 33 34 35 36 37 38 39 40 41 42 43 44 45 46 47 48 49 50
000
ASUS42 KCHS 300025
RWRCHS

REGIONAL WEATHER ROUNDUP
NATIONAL WEATHER SERVICE CHARLESTON SC
800 PM EDT FRI AUG 29 2014

NOTE: "FAIR" INDICATES FEW OR NO CLOUDS BELOW 12,000 FEET WITH NO
SIGNIFICANT WEATHER AND/OR OBSTRUCTIONS TO VISIBILITY.

NOT ALL STATIONS ARE QUALITY CONTROLLED BY THE NATIONAL
WEATHER SERVICE. USE DATA WITH CAUTION...ESPECIALLY
DEWPOINT OBSERVATIONS.

SCZ027-030-031-034>040-042>050-300100-
...SOUTH CAROLINA...

CITY           SKY/WX    TMP DP  RH WIND       PRES   REMARKS
N CHARLESTON   PTCLDY    83  73  72 SE8       30.09R
6HR MIN TEMP:  83; 6HR MAX TEMP:  92;

WATERFRONT PRK   N/A     82 N/A N/A SE10        N/A
FORT JOHNSON   NOT AVBL
MOUNT PLEASANT FAIR      81  77  89 E3        30.09S
JOHNS ISLAND   CLEAR     81  77  89 CALM      30.09R
PINOPOLIS        N/A     86  73  66 SE2       30.01R HX  93
MONCKS CORNER    N/A     82  77  83 SE5       30.09R HX  91
SUMMERVILLE    FAIR      79  77  94 CALM      30.09R
BEAUFORT MCAS  CLEAR     82  71  69 S5        30.07S
6HR MIN TEMP:  82; 6HR MAX TEMP:  92;

BEAUFORT ARPT  FAIR      81  72  74 CALM      30.07R
HILTON HEAD IS CLEAR     82  73  74 SE3       30.09R
GEORGETOWN     NOT AVBL
WALTERBORO     PTCLDY    81  61  50 SE5       30.08S
ORANGEBURG     CLOUDY    82  69  64 SE14G21   30.07R
6HR MIN TEMP:  82; 6HR MAX TEMP:  94;

BARNWELL       FAIR      88  66  48 SE9       30.06R HX  90
AIKEN          FAIR      86  63  45 SE5       30.09R
MANNING        FAIR      81  70  69 SE3       30.08S
KINGSTREE      NOT AVBL
COLUMBIA       PTCLDY    87  56  34 E7        30.05R
6HR MIN TEMP:  87; 6HR MAX TEMP:  96;

SUMTER         CLEAR     87  63  45 SE3       30.06R
6HR MIN TEMP:  87; 6HR MAX TEMP:  95;

FLORENCE       CLEAR     85  66  53 S3        30.08R
6HR MIN TEMP:  85; 6HR MAX TEMP:  94;

MYRTLE BEACH   CLEAR     82  73  74 SE12      30.10R
N MYRTLE BEACH CLEAR     82  74  76 SE7       30.10R
6HR MIN TEMP:  81; 6HR MAX TEMP:  86;


$$

GAZ063-065-086>088-099>101-113>116-118-119-134-136>141-150-300100-
...GEORGIA...

CITY           SKY/WX    TMP DP  RH WIND       PRES   REMARKS
SAVANNAH ARPT  PTCLDY    84  70  62 S9        30.07R
6HR MIN TEMP:  84; 6HR MAX TEMP:  94;

HUNTER AAF     CLEAR     82  74  77 SE6       30.05R
6HR MIN TEMP:  82; 6HR MAX TEMP:  91;

FORT STEWART   MOCLDY    83  72  67 SE7       30.05R
6HR MIN TEMP:  83; 6HR MAX TEMP:  95;

STATESBORO     NOT AVBL
SYLVANIA       CLEAR     81  71  70 SE3       30.07R
CLAXTON        NOT AVBL
THOMSON        CLEAR     83  67  57 CALM      30.08S
AUGUSTA-BUSH   CLEAR     80  66  62 CALM      30.02S
6HR MIN TEMP:  80; 6HR MAX TEMP:  96;

AUGUSTA-DANIEL CLEAR     90  60  36 SE6       30.04S
SWAINSBORO     FAIR      88  68  51 SE5       30.04R HX  91
VIDALIA          N/A     86  64  48 SE6       30.04R
ALMA           CLEAR     86  68  54 SE8       30.02S
6HR MIN TEMP:  86; 6HR MAX TEMP:  95;

WAYCROSS       CLEAR     88  77  70 S8        30.05R HX 100
JESUP            N/A     86  73  66 SE5       30.06R HX  93
BRUNSWICK      CLEAR     84  72  65 SE6       30.08R
SAINT SIMONS   CLEAR     83  74  74 SE13      30.06R
6HR MIN TEMP:  83; 6HR MAX TEMP:  88;


$$

SCZ027-028-034-036>038-045-046-048>050-GAZ119-141-300100-
...LAKE AND SUPPLEMENTAL COASTAL OBSERVATIONS...

STATION/POSITION TIME  TEMP    WIND        PRES    WAVE   SWELL
                       AIR SEA DIR/SP/G            HT/PER HT/PER/DIR
                 (UTC) (F)     (DEG/KT/KT) (MB)    (FT/S) (FT/S/D)
UPR LAKE MARION  NOT AVBL
WINYAH BAY       0000   82     120/  8     1019.0S
LAKE MURRAY      2300   90     110/  4/ 10 1016.6S
ACE BASIN NERRS  0000   82     140/  2     1018.0S
FORT PULASKI     0000   82     130/  5/  7 1018.5R
SAPELO ISLAND    0000   83     130/  5     1019.0S

$$

ANZ835-935-AMZ111-154-330-350-352-354-374-450-454-472-300100-
...C-MAN AND BUOY OBSERVATIONS...

STATION/POSITION TIME  TEMP    WIND        PRES    WAVE   SWELL
                       AIR SEA DIR/SP/G            HT/PER HT/PER/DIR
                 (UTC) (F)     (DEG/KT/KT) (MB)    (FT/S) (FT/S/D)
FOLLY BEACH CMAN 0000   82     130/  9/ 10 1019.1R
BUOY 41004       0000   83 84  170/  8/  8 1018.4R   3/ 8   2/ 8
BUOY 41008       0000   83 85  130/ 12/ 14 1018.1R   2/ 8   2/100/ 8
5E ST. MARYS GA  0000      85                N/A     3/ 8
FRYING PAN BUOY  NOT AVBL
BUOY 41025       0000   77      60/ 14/ 14 1019.9R   3/ 8   3/140/ 8
CAPE LOOKOUT NC  0000   80      60/  2/  2 1020.0R
BUOY 41002       NOT AVBL
BUOY 41010       0000   83 84   CALM  /  2 1018.7S   3/ 7   3/ 90/ 7
BUOY 41012       NOT AVBL
ST AUGUSTINE FL  0000   76     180/  7/  8 1019.3R
CAPERS NEARSHORE 2300   83     120/ 12/ 14   N/A
FRIPP NEARSHORE  NOT AVBL


$$



USA.gov is the U.S. government's official web portal to all federal, state and local government web resources and services.